• In Germany
  • List of Countries
  • For 7 days
  • Water Temperature
  • Satellite Maps
  • Weather Map
  • Weather Widgets
  • user-avatar
    Login

    Hourly Weather Innsbruck

    Today, 28 June, Wednesday

    Time Temperature Precipitation Wind Pressure Humidity
    00:00 +8°C° 0 mm 2 mps 592 mmHg 95%
    01:00 +8°C° 0 mm 2 mps 592 mmHg 94%
    02:00 +8°C° 0 mm 2 mps 591 mmHg 94%
    03:00 +8°C° 0 mm 2 mps 591 mmHg 93%
    04:00 +8°C° 0 mm 2 mps 591 mmHg 93%
    05:00 +9°C° 0 mm 2 mps 591 mmHg 90%
    06:00 +10°C° 0 mm 2 mps 591 mmHg 87%
    07:00 +11°C° 0 mm 3 mps 592 mmHg 85%
    08:00 +13°C° 0.6 mm 2 mps 592 mmHg 82%
    09:00 +13°C° 0.6 mm 2 mps 592 mmHg 79%
    10:00 +14°C° 0.6 mm 2 mps 593 mmHg 76%
    11:00 +14°C° 1.1 mm 2 mps 592 mmHg 76%
    12:00 +14°C° 1.1 mm 2 mps 592 mmHg 76%
    13:00 +14°C° 1.1 mm 2 mps 592 mmHg 76%
    14:00 +14°C° 1.1 mm 2 mps 592 mmHg 77%
    15:00 +14°C° 1.1 mm 2 mps 591 mmHg 78%
    16:00 +13°C° 1.1 mm 2 mps 591 mmHg 79%
    17:00 +12°C° 0.9 mm 2 mps 590 mmHg 83%
    18:00 +12°C° 0.9 mm 2 mps 590 mmHg 87%
    19:00 +11°C° 0.9 mm 1 mps 589 mmHg 90%
    20:00 +10°C° 0.7 mm 1 mps 588 mmHg 92%
    21:00 +9°C° 0.7 mm 1 mps 588 mmHg 95%
    22:00 +8°C° 0.7 mm 1 mps 587 mmHg 97%
    23:00 +7°C° 0.4 mm 1 mps 587 mmHg 97%

    Tomorrow, 29 June, Thursday

    Time Temperature Precipitation Wind Pressure Humidity
    00:00 +7°C° 0.4 mm 1 mps 587 mmHg 97%
    01:00 +7°C° 0.4 mm 1 mps 586 mmHg 97%
    02:00 +7°C° 0.7 mm 1 mps 586 mmHg 97%
    03:00 +6°C° 0.7 mm 1 mps 586 mmHg 97%
    04:00 +6°C° 0.7 mm 1 mps 586 mmHg 97%
    05:00 +7°C° 0.6 mm 1 mps 586 mmHg 95%
    06:00 +7°C° 0.6 mm 1 mps 587 mmHg 93%
    07:00 +8°C° 0.6 mm 1 mps 587 mmHg 91%
    08:00 +8°C° 0.9 mm 1 mps 588 mmHg 88%
    09:00 +9°C° 0.9 mm 1 mps 588 mmHg 85%
    10:00 +9°C° 0.9 mm 1 mps 589 mmHg 83%
    11:00 +10°C° 0.8 mm 1 mps 589 mmHg 80%
    12:00 +11°C° 0.8 mm 1 mps 590 mmHg 78%
    13:00 +12°C° 0.8 mm 1 mps 590 mmHg 76%
    14:00 +11°C° 1.3 mm 1 mps 590 mmHg 78%
    15:00 +11°C° 1.3 mm 1 mps 590 mmHg 80%
    16:00 +11°C° 1.3 mm 1 mps 590 mmHg 82%
    17:00 +10°C° 1.6 mm 1 mps 590 mmHg 86%
    18:00 +9°C° 1.6 mm 1 mps 589 mmHg 90%
    19:00 +8°C° 1.6 mm 1 mps 589 mmHg 94%
    20:00 +7°C° 1.6 mm 1 mps 589 mmHg 95%
    21:00 +6°C° 1.6 mm 1 mps 589 mmHg 96%
    22:00 +5°C° 1.6 mm 1 mps 589 mmHg 97%
    23:00 +5°C° 1 mm 1 mps 589 mmHg 97%

    Day after tomorrow, 30 June, Friday

    Time Temperature Precipitation Wind Pressure Humidity
    00:00 +5°C° 1 mm 1 mps 589 mmHg 97%
    01:00 +4°C° 1 mm 1 mps 589 mmHg 97%
    02:00 +4°C° 1.5 mm 1 mps 589 mmHg 97%
    03:00 +4°C° 1.5 mm 1 mps 589 mmHg 96%
    04:00 +4°C° 1.5 mm 1 mps 589 mmHg 96%
    05:00 +4°C° 0.4 mm 1 mps 590 mmHg 95%
    06:00 +5°C° 0.4 mm 1 mps 590 mmHg 94%
    07:00 +5°C° 0.4 mm 1 mps 591 mmHg 92%
    08:00 +7°C° 0.1 mm 1 mps 592 mmHg 83%
    09:00 +9°C° 0.1 mm 1 mps 593 mmHg 74%
    10:00 +9°C° 0.1 mm 2 mps 594 mmHg 65%
    11:00 +10°C° 0.6 mm 2 mps 594 mmHg 66%
    12:00 +10°C° 0.6 mm 2 mps 594 mmHg 66%
    13:00 +10°C° 0.6 mm 2 mps 594 mmHg 67%
    14:00 +10°C° 1 mm 2 mps 594 mmHg 69%
    15:00 +10°C° 1 mm 2 mps 594 mmHg 72%
    16:00 +9°C° 1 mm 2 mps 594 mmHg 74%
    17:00 +8°C° 1 mm 2 mps 593 mmHg 79%
    18:00 +8°C° 1 mm 1 mps 593 mmHg 83%
    19:00 +8°C° 1 mm 1 mps 593 mmHg 87%
    20:00 +6°C° 1 mm 1 mps 593 mmHg 91%
    21:00 +5°C° 1 mm 1 mps 592 mmHg 94%
    22:00 +4°C° 1 mm 1 mps 592 mmHg 97%
    23:00 +3°C° 0.5 mm 1 mps 592 mmHg 97%

    1 July, Saturday

    Time Temperature Precipitation Wind Pressure Humidity
    00:00 +3°C° 0.5 mm 1 mps 591 mmHg 97%
    01:00 +2°C° 0.5 mm 1 mps 591 mmHg 97%
    02:00 +1°C° 0.4 mm 0 mps 591 mmHg 97%
    03:00 +1°C° 0.4 mm 0 mps 591 mmHg 97%
    04:00 +1°C° 0.4 mm 0 mps 591 mmHg 97%
    05:00 +2°C° 0.2 mm 0 mps 592 mmHg 94%
    06:00 +4°C° 0.2 mm 0 mps 593 mmHg 90%
    07:00 +5°C° 0.2 mm 0 mps 593 mmHg 87%
    08:00 +7°C° 0.2 mm 1 mps 594 mmHg 81%
    09:00 +9°C° 0.2 mm 1 mps 595 mmHg 75%
    10:00 +10°C° 0.2 mm 1 mps 595 mmHg 69%
    11:00 +11°C° 0.6 mm 1 mps 595 mmHg 69%
    12:00 +11°C° 0.6 mm 1 mps 595 mmHg 68%
    13:00 +12°C° 0.6 mm 1 mps 595 mmHg 68%
    14:00 +11°C° 1.1 mm 1 mps 595 mmHg 72%
    15:00 +10°C° 1.1 mm 1 mps 595 mmHg 75%
    16:00 +10°C° 1.1 mm 1 mps 595 mmHg 79%
    17:00 +9°C° 1.3 mm 1 mps 595 mmHg 84%
    18:00 +8°C° 1.3 mm 1 mps 594 mmHg 89%
    19:00 +7°C° 1.3 mm 1 mps 594 mmHg 94%
    20:00 +6°C° 0.4 mm 1 mps 594 mmHg 95%
    21:00 +5°C° 0.4 mm 1 mps 594 mmHg 96%
    22:00 +5°C° 0.4 mm 1 mps 594 mmHg 97%
    23:00 +4°C° 0.2 mm 1 mps 594 mmHg 97%

    2 July, Sunday

    Time Temperature Precipitation Wind Pressure Humidity
    00:00 +4°C° 0.2 mm 1 mps 594 mmHg 97%
    01:00 +4°C° 0.2 mm 1 mps 595 mmHg 97%
    02:00 +4°C° 0.6 mm 1 mps 595 mmHg 97%
    03:00 +4°C° 0.6 mm 1 mps 595 mmHg 97%
    04:00 +4°C° 0.6 mm 1 mps 595 mmHg 97%
    05:00 +4°C° 0.6 mm 1 mps 595 mmHg 96%
    06:00 +4°C° 0.6 mm 2 mps 596 mmHg 96%
    07:00 +4°C° 0.6 mm 2 mps 596 mmHg 95%
    08:00 +5°C° 0.4 mm 2 mps 597 mmHg 90%
    09:00 +6°C° 0.4 mm 2 mps 597 mmHg 86%
    10:00 +7°C° 0.4 mm 2 mps 598 mmHg 81%
    11:00 +8°C° 0.2 mm 2 mps 598 mmHg 78%
    12:00 +9°C° 0.2 mm 2 mps 599 mmHg 75%
    13:00 +9°C° 0.2 mm 2 mps 599 mmHg 72%
    14:00 +10°C° 0 mm 2 mps 599 mmHg 67%
    15:00 +12°C° 0 mm 2 mps 600 mmHg 63%
    16:00 +13°C° 0 mm 2 mps 600 mmHg 58%
    17:00 +10°C° 0 mm 2 mps 600 mmHg 64%
    18:00 +9°C° 0 mm 2 mps 600 mmHg 71%
    19:00 +8°C° 0 mm 2 mps 599 mmHg 77%
    20:00 +8°C° 0 mm 1 mps 599 mmHg 82%
    21:00 +6°C° 0 mm 1 mps 599 mmHg 87%
    22:00 +5°C° 0 mm 1 mps 598 mmHg 93%
    23:00 +4°C° 0 mm 1 mps 598 mmHg 93%

    3 July, Monday

    Time Temperature Precipitation Wind Pressure Humidity
    00:00 +4°C° 0 mm 1 mps 598 mmHg 94%
    01:00 +4°C° 0 mm 1 mps 598 mmHg 94%
    02:00 +3°C° 0 mm 1 mps 598 mmHg 94%
    03:00 +3°C° 0 mm 1 mps 598 mmHg 95%
    04:00 +3°C° 0 mm 1 mps 597 mmHg 95%
    05:00 +4°C° 0 mm 1 mps 598 mmHg 92%
    06:00 +6°C° 0 mm 1 mps 599 mmHg 88%
    07:00 +7°C° 0 mm 1 mps 600 mmHg 85%
    08:00 +9°C° 0 mm 1 mps 600 mmHg 77%
    09:00 +10°C° 0 mm 1 mps 601 mmHg 70%
    10:00 +12°C° 0 mm 1 mps 602 mmHg 63%
    11:00 +13°C° 0 mm 1 mps 602 mmHg 59%
    12:00 +14°C° 0 mm 2 mps 602 mmHg 55%
    13:00 +15°C° 0 mm 2 mps 603 mmHg 51%
    14:00 +15°C° 0.1 mm 2 mps 602 mmHg 54%
    15:00 +14°C° 0.1 mm 2 mps 602 mmHg 56%
    16:00 +14°C° 0.1 mm 2 mps 602 mmHg 59%
    17:00 +13°C° 0.1 mm 2 mps 601 mmHg 68%
    18:00 +12°C° 0.1 mm 2 mps 601 mmHg 76%
    19:00 +10°C° 0.1 mm 1 mps 601 mmHg 85%
    20:00 +9°C° 0.1 mm 1 mps 600 mmHg 89%
    21:00 +8°C° 0.1 mm 1 mps 600 mmHg 93%
    22:00 +6°C° 0.1 mm 1 mps 600 mmHg 98%
    23:00 +6°C° 0 mm 1 mps 599 mmHg 97%
    Show more